Regional Weather Roundup
Issued by NWS Sterling, VA

Home | Current Version | Previous Version | Graphics & Text | Print | Product List | Glossary On
Versions: 1 2 3 4 5 6 7 8 9 10 11 12 13 14 15 16 17 18 19 20 21 22 23 24 25 26 27 28 29 30 31 32 33 34 35 36 37 38 39 40 41 42 43 44 45 46 47 48 49 50
000
ASUS41 KLWX 240610
RWRLWX

REGIONAL WEATHER ROUNDUP
NATIONAL WEATHER SERVICE BALTIMORE MD/WASHINGTON DC
200 AM EDT SUN MAY 24 2015

Note: "FAIR" indicates few or no clouds below 12,000 feet
with no significant weather and/or obstructions to visibility.
 TC=TEMPERATURE CELSIUS

 * =Non NWS site. Station does not report precipitation (e.g. rain,
    snow, etc.), thunder, or fog.

DCZ001-MDZ009-015-VAZ040>042-051-053>054-240700-
WASHINGTON METRO

CITY           SKY/WX    TMP DP  RH WIND       PRES   REMARKS
WASHINGTON NAT CLEAR     61  44  53 S10       30.39S
DULLES         CLEAR     53  47  79 CALM      30.38F
ANDREWS AFB    CLEAR     53  42  66 S6        30.37F
FT BELVOIR     CLEAR     51  48  90 SE5       30.38F
QUANTICO       PTCLDY    63  48  58 S12       30.39F
COLLEGE PARK*  CLEAR     50  46  87 CALM      30.38S
LEESBURG*      CLEAR     55  48  76 SE5       30.39S
MANASSAS*        N/A    N/A N/A N/A MISG        N/A
GAITHERSBURG*  CLEAR     48  43  81 CALM      30.42S

$$

MDZ006>007-011-014-240700-
BALTIMORE METRO

CITY           SKY/WX    TMP DP  RH WIND       PRES   REMARKS
BWI AIRPORT    PTCLDY    52  44  74 CALM      30.38S
MD SCIENCE CTR   N/A     59  43  55 MISG      30.39S
MARTIN STATE   CLEAR     52  50  93 CALM      30.40S
ANNAPOLIS      CLEAR     56  42  59 CALM      30.37F
FORT MEADE*    CLEAR     45  43  93 CALM      30.40F

$$

MDZ012-015-019>023-240700-
MARYLAND EASTERN SHORE

CITY           SKY/WX    TMP DP  RH WIND       PRES   REMARKS
OCEAN CITY     CLEAR     56  49  77 SW7       30.41S
SALISBURY      CLEAR     46  44  93 E3        30.40F
BAY BRIDGE AP*   N/A    N/A N/A N/A S5        30.38F
EASTON*        CLEAR     54  53  94 S3        30.42F

$$

MDZ017>025-240700-
SOUTHERN MARYLAND

CITY           SKY/WX    TMP DP  RH WIND       PRES   REMARKS
PATUXENT RIVER CLEAR     57  51  80 S6        30.38F
ST INIGOES     CLEAR     60  52  74 S5        30.38F
LEONARDTOWN*   CLEAR     54  46  76 CALM      30.40F

$$

MDZ003>005-240700-
NORTH CENTRAL MARYLAND

CITY           SKY/WX    TMP DP  RH WIND       PRES   REMARKS
FREDERICK*     CLEAR     46  46 100 CALM      30.40F
HAGERSTOWN APT CLEAR     58  40  51 E7        30.36F
WESTMINSTER*   PTCLDY    57  41  54 S3        30.38F

$$

MDZ501>502-240700-
WESTERN MARYLAND

CITY           SKY/WX    TMP DP  RH WIND       PRES   REMARKS
OAKLAND*       CLEAR     52  36  54 S5        30.40S
CUMBERLAND*    CLEAR     50  43  76 N5        30.41R

$$

VAZ025>031-240700-
SHENANDOAH VALLEY

CITY           SKY/WX    TMP DP  RH WIND       PRES   REMARKS
WINCHESTER*    CLEAR     54  43  66 CALM      30.36S
FRONT ROYAL*   FAIR      50  48  93 CALM      30.35F
LURAY*         FAIR      54  54 100 CALM      30.37S
NEW MARKET*    FAIR      50  48  95 CALM      30.36F
STAUNTON*      CLEAR     50  47  89 CALM      30.39F
WAYNESBORO*    FAIR      53  48  84 CALM      30.38F

$$

WVZ021-048>050-054>055-240700-
EASTERN WEST VIRGINIA PANHANDLE

CITY           SKY/WX    TMP DP  RH WIND       PRES   REMARKS
MARTINSBURG    CLEAR     49  45  86 CALM      30.36F
PETERSBURG*    CLEAR     45  41  86 CALM      30.38F

$$

VAZ036>039-050-240700-
CENTRAL FOOTHILLS

CITY           SKY/WX    TMP DP  RH WIND       PRES   REMARKS
CHARLOTTESVILL CLEAR     54  49  83 CALM      30.37F
CULPEPER*      PTCLDY    50  48  93 CALM      30.39S
ORANGE*        CLEAR     55  52  88 CALM      30.39F
GORDONSVILLE*  FAIR      52  49  92 CALM      30.38S
WARRENTON*     FAIR      50  49  97 CALM      30.37F

$$

VAZ055>057-240700-
NORTH AND CENTRAL PIEDMONT

CITY           SKY/WX    TMP DP  RH WIND       PRES   REMARKS
FREDERICKSBRG* PTCLDY    58  50  75 CALM      30.37F
STAFFORD*      CLEAR     49  46  91 CALM      30.42F

$$

NCZ024-NYZ072-PAZ021-071-VAZ022-071-240700-
OTHER REGIONAL OBSERVATIONS

CITY           SKY/WX    TMP DP  RH WIND       PRES   REMARKS
NEW YORK CITY  CLEAR     58  37  45 VRB3      30.37S
PHILADELPHIA   PTCLDY    56  48  74 SW6       30.38F
PITTSBURGH     CLEAR     52  43  71 CALM      30.32F
ROANOKE        CLEAR     55  50  83 CALM      30.39F
RICHMOND       PTCLDY    58  49  72 SE3       30.39F
RALEIGH        PTCLDY    63  53  70 S5        30.39R

$$

ANZ530>537-240700-
MARINE OBSERVATIONS

STATION/POSITION TIME  TEMP    WIND        PRES
                       AIR SEA DIR/SP/G
                 (UTC) (F)     (DEG/KT/KT) (MB)
THOMAS PT LIGHT  0600   64 65  200/ 13/ 13 1029.2F
BALT KEY BRIDGE  0500   59     240/  3/  4 1028.8R
LEWISETTA        0500   60 69              1028.9F
SOLOMONS ISLAND  0500      68                N/A
PINEY POINT      0500          180/  8/ 10   N/A

$$




USA.gov is the U.S. government's official web portal to all federal, state and local government web resources and services.